sat.trackr.live / text

‹ back to catalog

STARLINK-37248

NORAD 68527 · 2026-068V

PAYLOAD ACTIVE UNKNOWN

§ Identity

Operator
Country
US
Launch date
2026-03-30
Launch site
AFETR
Launch vehicle
Mass (kg)
RCS (m²)

Purposes: comms

External: N2YO · Heavens-Above · Gunter

§ Orbital elements

Epoch: 2026-09-19T18:11:00.714624Z

Period
93.85 min
Inclination
53.1604°
Eccentricity
0.0000972
Mean motion
15.34415911 rev/d
Perigee alt
462.0 km
Apogee alt
463.3 km
Semi-major
6,840.8 km
B*
5.8202e-4
RAAN
300.9630°
Arg perigee
80.1645°
Mean anomaly
279.9468°
Rev number
2,675

§ Raw data

STARLINK-372481 68527U 26068V   26262.75764716  .00019349  00000+0  58202-3 0  99962 68527  53.1604 300.9630 0000972  80.1645 279.9468 15.34415911 26751

JSON: /api/v1/satellites/68527 · /tle

For live sub-satellite position, see the globe view (requires WebGL).

§ Visibility from observer

Set your observer location to see the next 7 days of passes ≥ 10°. The values pass through the URL so the page stays shareable.

No JS? Fill the form by hand. The geolocation button needs JavaScript.